Weather History for Sarasota, FL

Change the Weather History Date:

Sunday, August 11, 2013

  Actual Average Record
Temperature  
Mean Temperature 84 °F 82 °F  
Max Temperature 93 °F 90 °F 95 °F (1998)
Min Temperature 75 °F 74 °F 68 °F (1982)
Degree Days  
Heating Degree Days 0 0  
Month to date heating degree days 0 0  
Since 1 June heating degree days 0 0  
Since 1 July heating degree days 0 0  
Cooling Degree Days 19 17  
Month to date cooling degree days 209 187  
Year to date cooling degree days 2139 1949  
Since 1 June cooling degree days 1271 1198  
Growing Degree Days 33 (Base 50)    
Moisture  
Dew Point 75 °F    
Average Humidity 74    
Maximum Humidity 94    
Minimum Humidity 56    
Precipitation  
Precipitation 0.00 in 0.30 in 2.08 in (1962)
Month to date precipitation 2.81 3.02  
Year to date precipitation 30.10 32.21  
Sea Level Pressure  
Sea Level Pressure 30.10 in    
Wind  
Wind Speed 7 mph (East)    
Max Wind Speed 15 mph    
Max Gust Speed 17 mph    
Visibility 10 miles    
Events      
T = Trace of Precipitation, MM = Missing Value Source: NWS Daily Summary

Daily Weather History Graph

Daily Weather History Graph

Search for Another Location

Airport:

Trip Planner

Search our weather history database for the weather conditions in past years. The results will help you decide how hot, cold, wet, or windy it might be!

Date:

Astronomy

Aug. 11, 2013 Rise Set
Actual Time 6:59 AM EDT 8:11 PM EDT
Civil Twilight 6:34 AM EDT 8:35 PM EDT
Nautical Twilight 6:05 AM EDT 9:04 PM EDT
Astronomical Twilight 5:35 AM EDT 9:34 PM EDT
Moon 11:14 AM EDT (8/11) 10:59 PM EDT (8/11)
Length of Visible Light 14h 01m
Length of Day
13h 11m
Waxing Crescent, 22% of the Moon is Illuminated
Aug 11
Waxing Crescent
Aug 14
First Quarter
Aug 20
Full
Aug 28
Last Quarter
Sep 5
New

Hourly Weather History & Observations

Time (EDT) Temp. Heat Index Dew Point Humidity Pressure Visibility Wind Dir Wind Speed Gust Speed Precip Events Conditions
12:53 AM 81.0 °F 85.8 °F 73.0 °F 77% 30.11 in 10.0 mi ESE 8.1 mph - N/A   Clear
1:53 AM 79.0 °F - 73.0 °F 82% 30.10 in 10.0 mi ESE 6.9 mph - N/A   Clear
2:53 AM 79.0 °F - 73.0 °F 82% 30.09 in 10.0 mi ESE 8.1 mph - N/A   Clear
3:53 AM 78.1 °F - 73.0 °F 84% 30.09 in 10.0 mi ESE 6.9 mph - N/A   Clear
4:53 AM 77.0 °F - 73.0 °F 88% 30.10 in 10.0 mi East 4.6 mph - N/A   Clear
5:53 AM 75.9 °F - 73.0 °F 91% 30.10 in 10.0 mi East 4.6 mph - N/A   Clear
6:53 AM 75.9 °F - 73.0 °F 91% 30.12 in 10.0 mi East 4.6 mph - N/A   Clear
7:53 AM 77.0 °F - 75.0 °F 94% 30.12 in 10.0 mi East 5.8 mph - N/A   Clear
8:53 AM 81.0 °F 86.7 °F 75.0 °F 82% 30.13 in 10.0 mi ESE 9.2 mph - N/A   Clear
9:53 AM 84.9 °F 93.3 °F 75.0 °F 72% 30.13 in 10.0 mi SE 12.7 mph - N/A   Clear
10:53 AM 88.0 °F 96.5 °F 73.9 °F 63% 30.14 in 10.0 mi SE 10.4 mph - N/A   Clear
11:53 AM 88.0 °F 96.5 °F 73.9 °F 63% 30.14 in 10.0 mi SE 5.8 mph - N/A   Clear
12:53 PM 91.0 °F 101.6 °F 75.0 °F 59% 30.12 in 10.0 mi ESE 8.1 mph - N/A   Partly Cloudy
1:53 PM 91.9 °F 100.7 °F 73.0 °F 54% 30.10 in 10.0 mi East 6.9 mph - N/A   Mostly Cloudy
2:53 PM 90.0 °F 101.3 °F 75.9 °F 63% 30.09 in 10.0 mi WSW 8.1 mph - N/A   Mostly Cloudy
3:53 PM 91.0 °F 102.9 °F 75.9 °F 61% 30.07 in 10.0 mi West 9.2 mph - N/A   Clear
4:53 PM 89.1 °F 100.2 °F 75.9 °F 65% 30.06 in 10.0 mi West 9.2 mph - N/A   Clear
5:53 PM 89.1 °F 100.2 °F 75.9 °F 65% 30.04 in 10.0 mi West 8.1 mph - N/A   Scattered Clouds
6:53 PM 89.1 °F 100.2 °F 75.9 °F 65% 30.04 in 10.0 mi West 9.2 mph - N/A   Clear
7:53 PM 86.0 °F 96.0 °F 75.9 °F 72% 30.06 in 10.0 mi NW 8.1 mph - N/A   Clear
8:53 PM 84.9 °F 93.3 °F 75.0 °F 72% 30.08 in 10.0 mi NNW 6.9 mph - N/A   Partly Cloudy
9:53 PM 84.0 °F 91.9 °F 75.0 °F 74% 30.09 in 10.0 mi NNW 5.8 mph - N/A   Clear
10:53 PM 84.0 °F 92.6 °F 75.9 °F 76% 30.12 in 10.0 mi Calm Calm - N/A   Clear
11:53 PM 84.0 °F 92.6 °F 75.9 °F 76% 30.12 in 10.0 mi NNE 5.8 mph - N/A   Partly Cloudy